STARLINK-1733, 46564

Orbit data source: Space-Track

STARLINK-1733, 46564 is a payload satellite owned by SpaceX/Seattle (US) in LEO that was launched on Tue, 06 Oct 2020 UTC via an FALCON 9 launch vehicle from the Air Force Eastern Test Range (AFETR). Payload-class satellites include a variety of spacecraft equipped with specific instruments for various scientific and technological missions. These include communications satellites like Starlink; space stations such as the ISS; scientific satellites like the Hubble; Earth observation satellites from companies like Planet Labs, Umbra, and HawkEye 360; GPS; miniature CubeSats for education and research; and military/defense satellites.

Loading next visibility...
Identifier
46564, 2020-070AJ
Orbit
LEO
Last TLE update
16 hours ago
Origin
Manufacturer
SpaceX/Seattle
Mission
Operational Commercial Communications
Bus & Motor
STARLINK, Unknown motor
Mass
260 kg wet, ~248 kg dry
Launch date (UTC)
2020-10-06 (5 years ago)
Launch vehicle
FALCON 9
Launch site
Air Force Eastern Test Range (AFETR)
Object type
Payload
Rocket body
Debris
Shape & HBR
Box + 1 Pan, 8.86 m
Radar Cross Section
13.562 m², Large (>1 m²)

Expand to show TLE details & history

TLE from 16 hours ago
0 STARLINK-1733
1 46564U 20070AJ  25128.60410074  .00000952  00000-0  82830-4 0  9995
2 46564  53.0540  86.2750 0001384  96.4291 263.6855 15.06398936253813
Epoch: 2025-05-08T14:29Z
Definitive object data (Epoch: 2025-05-08T14:29:54.303Z)
Latitude
-0.00009°
Longitude
2.12645°
Altitude
548.199 km
Speed
7.589 km/s
True Right ascension
05h 45m 05s
True Declination
0° 00' 00"
Sunlit
Object was in daylight at TLE epoch
Visualization TLE readout
Latitude
-25.91857°
Longitude
-22.14013°
Altitude
555.434 km
Speed
7.584 km/s
Apparent Right ascension
03h 22m 58s
Apparent Declination
-33° 06' 30"
Sunlit
Object is in daylight
Visualization observer readout
Local Sidereal Time
14:25:20
Azimuth
295.997° NW
Elevation
-76.593°
Doppler factor
1
Orbital elements
Apogee altitude
548.444 km
Perigee altitude
546.527 km
Semi-major axis
6,925.623 km
Eccentricity
0.0001384
Inclination
53.054°
RAAN
86.275°
Arg. of periapsis
96.4291°
True anomaly
263.66974°
Mean anomaly
263.6855°
Eccentric anomaly
263.67762°
Mean motion
3.76578 °/min
BSTAR
0.00008283
Orbital period
95.6 mins
Loading maneuver chart data...
Loading SW <> Apogee altitude chart data...
Loading historical data...
Loading historical data...
Loading historical data...
Loading historical data...
Loading historical data...
Loading historical data...
Loading historical data...

STARLINK-1733 Visibility forecast

Observer location: undefined°, undefined°

Span
Click to sort rows by Start time (UTC) header in descending order
Start Az.
Max El. time (UTC)
Max El. Az.
Max El.
End time (UTC)
End Az.
7 mins2025-05-09 06:55:32.468Z306.051° NW2025-05-09 06:59:32.468Z188.879° SSW43.291°2025-05-09 07:02:32.468Z139.076° SSE
4 mins2025-05-09 22:30:32.468Z160.918° S2025-05-09 22:32:32.468Z122.026° SE19.502°2025-05-09 22:34:32.468Z87.585° E
6 mins2025-05-10 00:08:32.468Z250.297° W2025-05-10 00:11:32.468Z328.844° NNW39.145°2025-05-10 00:14:32.468Z39.25° NE
5 mins2025-05-10 05:11:32.468Z347.586° N2025-05-10 05:13:32.468Z34.837° NE24.802°2025-05-10 05:16:32.468Z85.208° E
|